This is the latest recevied weather packets stored in our database for station/object DD3UTS-13. If no packets are shown the sender has not sent any weather packets the latest 10 day(s).
| Time | Temp. | Humidity | Pressure | Rain* | Wind** | Luminosity | Snow |
|---|---|---|---|---|---|---|---|
| 1777708232 | 22.22° C | 42% | 1022.8 hPa | 0 mm | - | 481 W/m² | - |
| 1777707932 | 21.67° C | 41% | 1022.9 hPa | 0 mm | - | 478 W/m² | - |
| 1777707632 | 21.67° C | 42% | 1023 hPa | 0 mm | - | 471 W/m² | - |
| 1777707332 | 21.11° C | 42% | 1023 hPa | 0 mm | - | 467 W/m² | - |
| 1777707031 | 20.56° C | 43% | 1023 hPa | 0 mm | - | 464 W/m² | - |
| 1777706731 | 20.56° C | 44% | 1022.9 hPa | 0 mm | - | 459 W/m² | - |
| 1777706431 | 20° C | 44% | 1022.9 hPa | 0 mm | - | 454 W/m² | - |
| 1777706132 | 20° C | 44% | 1022.9 hPa | 0 mm | - | 446 W/m² | - |
| 1777705831 | 20° C | 43% | 1022.9 hPa | 0 mm | - | 441 W/m² | - |
| 1777705531 | 20° C | 42% | 1022.9 hPa | 0 mm | - | 434 W/m² | - |
| 1777705232 | 20° C | 43% | 1022.9 hPa | 0 mm | - | 429 W/m² | - |
| 1777704931 | 19.44° C | 43% | 1022.9 hPa | 0 mm | - | 418 W/m² | - |
| 1777704631 | 19.44° C | 44% | 1022.9 hPa | 0 mm | - | 412 W/m² | - |
| 1777704331 | 18.89° C | 44% | 1022.9 hPa | 0 mm | - | 398 W/m² | - |
| 1777704031 | 18.89° C | 45% | 1022.9 hPa | 0 mm | - | 393 W/m² | - |
| 1777703732 | 18.33° C | 45% | 1023 hPa | 0 mm | - | 384 W/m² | - |
| 1777703432 | 17.22° C | 47% | 1023 hPa | 0 mm | - | 380 W/m² | - |
| 1777703132 | 16.11° C | 50% | 1023 hPa | 0 mm | - | 377 W/m² | - |
| 1777702833 | 16.11° C | 51% | 1023 hPa | 0 mm | - | 375 W/m² | - |
| 1777702532 | 15.56° C | 51% | 1023 hPa | 0 mm | - | 373 W/m² | - |
| 1777702232 | 14.44° C | 53% | 1022.9 hPa | 0 mm | - | 370 W/m² | - |
| 1777701932 | 14.44° C | 53% | 1023 hPa | 0 mm | - | 367 W/m² | - |
| 1777701631 | 13.89° C | 53% | 1023 hPa | 0 mm | - | 138 W/m² | - |
| 1777701331 | 13.89° C | 53% | 1023 hPa | 0 mm | - | 131 W/m² | - |
| 1777701031 | 13.33° C | 53% | 1023 hPa | 0 mm | - | 122 W/m² | - |
* Rain latest 24 hours (hover to see other rain measurements)
** Current wind speed in m/s (hover to see current wind gust speed)